Hourly Data Report for October 10, 2014

All times are specified in Local Standard Time (LST). Add 1 hour to adjust for Daylight Saving Time where and when it is observed.

POND INLET A
NUNAVUT

72°41'22.000" N
77°58'08.000" W
61.60 m
2403206
71095
YIO

Download Data

Hourly Data (October 2014)
Hourly Data Report for October 10, 2014
Temp Definition
°C
Dew Point Temp Definition
°C
Rel Hum Definition
%
Wind Dir Definition
10's deg

Wind Spd Definition
km/h
Visibility Definition
km
Stn Press Definition
kPa
Hmdx Definition


Wind Chill Definition


Weather Definition


TIME
00:00 Legend Double Dagger -8.3 -10.4 85 13 8 16.1 101.36   -12 LegendNANA
01:00 Legend Double Dagger -7.3 -8.8 89 8 4 16.1 101.31   -9 LegendNANA
02:00 Legend Double Dagger -6.9 -8.3 90 8 4 16.1 101.27   -9 LegendNANA
03:00 Legend Double Dagger -6.7 -7.8 92 LegendMM 4 16.1 101.22   -9 LegendNANA
04:00 Legend Double Dagger -6.9 -8.1 91   0 11.3 101.20     Snow
05:00 Legend Double Dagger -6.8 -7.6 94   0 16.1 101.15     Snow
06:00 Legend Double Dagger -7.7 -8.7 92   0 16.1 101.09     Snow
07:00 Legend Double Dagger -5.5 -7.2 88 34 8 16.1 100.99   -9 Snow
08:00 Legend Double Dagger -7.8 -9.6 87 12 15 16.1 100.93   -14 LegendNANA
09:00 Legend Double Dagger -3.0 -6.4 78 6 26 16.1 100.80   -10 Snow
10:00 Legend Double Dagger -3.6 -7.3 76 15 13 16.1 100.74   -8 Snow
11:00 Legend Double Dagger -2.3 -5.8 77 6 34 12.9 100.65   -10 Snow
12:00 Legend Double Dagger -2.9 -6.6 76 6 43 16.1 100.57   -12 Snow
13:00 Legend Double Dagger -2.7 -6.7 74 5 35 16.1 100.46   -11 LegendNANA
14:00 Legend Double Dagger -2.0 -6.8 70 5 32 16.1 100.41   -9 LegendNANA
15:00 Legend Double Dagger -2.0 -6.5 71 6 41 16.1 100.30   -10 LegendNANA
16:00 Legend Double Dagger -1.8 -5.6 75 6 39 16.1 100.14   -10 LegendNANA
17:00 Legend Double Dagger -1.2 -5.0 76 6 26 16.1 100.10   -8 LegendNANA
18:00 Legend Double Dagger -0.5 -4.4 75 7 35 12.9 100.05   -8 Snow
19:00 Legend Double Dagger -0.3 -4.3 74 6 30 16.1 99.95   -7 Snow
20:00 Legend Double Dagger -0.2 -4.3 74 7 28 16.1 99.84   -7 LegendNANA
21:00 Legend Double Dagger 0.7 -3.4 74 7 32 16.1 99.78     LegendNANA
22:00 Legend Double Dagger 0.8 -3.1 75 6 32 16.1 99.67     LegendNANA
23:00 Legend Double Dagger 0.6 -2.6 79 6 24 16.1 99.70     LegendNANA

Notes on Data Quality.

Legend

  • E = Estimated
  • M = Missing
  • NA = Not Available
  • ‡ = Partner data that is not subject to review by the National Climate Archives
Date modified: